weather.gov     
National Weather Service

Regional Weather Roundup
NWS Homepage
This page is being discontinued on March 12, 2014.
The same data is available at this site. Please update your bookmarks.
Thank you, and we apologize for the inconvenience.
Please send an email to SR-SRH.Webmaster@noaa.gov with any concerns.


Current Version
Previous Version:    01  02  03  04  05  06  07  08  09  10  11  12  13  14  15  16  17  18  19  20  21  22  23  24  25  26  27  28  29  30  
   31  32  33  34  35  36  37  38  39  40  41  42  43  44  45  46  47  48  49  50  51  52  53  
[Printable]
192
ASUS44 KMEG 211110
RWRTN
TENNESSEE HOURLY STATE WEATHER ROUNDUP
NATIONAL WEATHER SERVICE MEMPHIS TN
500 AM CST SUN DEC 21 2014

TNZ002-004-019-021-049-052-054-088>092-211200-
WEST TENNESSEE

CITY           SKY/WX    TMP DP  RH WIND       PRES   REMARKS
MEMPHIS INTL   CLEAR     34  28  79 E3        30.20S
NWS MEMPHIS      N/A     29 N/A N/A MISG        N/A
JACKSON        CLEAR     30  26  85 CALM      30.21F
DYERSBURG      CLEAR     28  18  64 NE5       30.24S WCI  23
UNION CITY     CLEAR     27  27 100 CALM      30.22S
PARIS          CLEAR     25  21  86 CALM      30.23R
HUNTINGDON     CLEAR     26  24  92 E3        30.22F
LEXINGTON      CLEAR     25  25 100 CALM      30.20S
SAVANNAH       CLEAR     25  25 100 CALM      30.21S
$$

TNZ008-025-027-028-033-062-065-066-211200-
NORTH MIDDLE TENNESSEE

CITY           SKY/WX    TMP DP  RH WIND       PRES   REMARKS
NASHVILLE      CLEAR     25  24  96 S3        30.24S FOG
CLARKSVILLE    CLEAR     23  21  92 CALM      30.24S
SMYRNA         CLEAR     25  21  84 CALM      30.25F
COOKEVILLE     CLEAR     19  19 100 CALM      30.20F
CROSSVILLE     CLEAR     28  23  81 CALM      30.20S
$$

TNZ061-075-076-078-094-096-097-211200-
SOUTH MIDDLE TENNESSEE

CITY           SKY/WX    TMP DP  RH WIND       PRES   REMARKS
FAYETTEVILLE   CLEAR     28  25  86 N13G24    30.19S WCI  18
TULLAHOMA      CLEAR     27  23  86 CALM      30.20F
WINCHESTER     CLEAR     23  21  93 CALM      30.21S
MCMINNVILLE    CLEAR     25  25 100 CALM      30.20F
COLUMBIA       CLEAR    N/A N/A N/A CALM      30.20S
SHELBYVILLE    CLEAR     25  23  93 CALM      30.22F
$$

TNZ017-018-042-046-047-211200-
NORTHEAST TENNESSEE

CITY           SKY/WX    TMP DP  RH WIND       PRES   REMARKS
TRI CITIES     CLOUDY    37  35  92 CALM      30.22R FOG
ELIZABETHTON   CLOUDY    36  36 100 CALM      30.21R FOG
$$

TNZ012-013-036-069-073-074-211200-
CENTRAL EAST TENNESSEE

CITY           SKY/WX    TMP DP  RH WIND       PRES   REMARKS
KNOXVILLE      CLOUDY    38  30  73 N6        30.22S WCI  33
OAK RIDGE      CLEAR     29  26  89 CALM      30.25R
GATLINBURG     CLOUDY    37  36  93 CALM      30.22S
MORRISTOWN     CLOUDY    37  34  87 CALM      30.22S
$$

TNZ083-085-099-211200-
SOUTHEAST TENNESSEE

CITY           SKY/WX    TMP DP  RH WIND       PRES   REMARKS
CHATTANOOGA    CLOUDY    33  31  92 CALM      30.23S
$$

SKY/WX REPORTED AS FAIR MEANS FEW OR NO CLOUDS BELOW
12 THOUSAND FEET.





U.S. Dept. of Commerce
NOAA National Weather Service
1325 East West Highway
Silver Spring, MD 20910
E-mail: w-nws.webmaster@noaa.gov
Page last modified: May 16, 2007
NATIONAL WEATHER SERVICE: for Safety, for Work, for Fun - FOR LIFE